PHMTP EDNY-EHAM

Flight info

Callsign PHMTP
Flight time N/A
Altitude 20000
Route ALAGO1W ALAGO Z1 SUDEN T844 KOVAN DCT ADKUV DCT SUSET DCT
Aircraft B58T/L-SDFGRY/C

Departure

Time N/A
Airport Bodensee Airport Friedrichshafen (EDNY)

Arrival

Time 2026-05-04 19:07
Airport Amsterdam Airport Schiphol (EHAM)
Time Latitude Longitude Altitude Speed Heading
2026-05-04 17:40 49.02956 8.88748 20009 ft 189 kts 312°
2026-05-04 17:41 49.03943 8.87425 20009 ft 189 kts 312°
2026-05-04 17:41 49.04927 8.86102 20007 ft 188 kts 312°
2026-05-04 17:41 49.05907 8.84784 20006 ft 187 kts 312°
2026-05-04 17:41 49.06885 8.83469 20013 ft 188 kts 312°
2026-05-04 17:42 49.07865 8.82148 20009 ft 188 kts 312°
2026-05-04 17:42 49.08848 8.80825 20007 ft 189 kts 312°
2026-05-04 17:42 49.09833 8.79498 20008 ft 188 kts 312°
2026-05-04 17:42 49.10817 8.78173 20009 ft 189 kts 312°
2026-05-04 17:43 49.11800 8.76845 20007 ft 189 kts 312°
2026-05-04 17:43 49.12784 8.75518 20008 ft 189 kts 312°
2026-05-04 17:43 49.13772 8.74184 20009 ft 189 kts 312°
2026-05-04 17:43 49.14758 8.72851 20009 ft 189 kts 312°
2026-05-04 17:44 49.15732 8.71534 20011 ft 190 kts 312°
2026-05-04 17:44 49.16721 8.70198 20010 ft 190 kts 312°
2026-05-04 17:44 49.17708 8.68861 20010 ft 190 kts 312°
2026-05-04 17:44 49.18698 8.67521 20012 ft 190 kts 312°
2026-05-04 17:45 49.19686 8.66183 20015 ft 190 kts 312°
2026-05-04 17:45 49.20677 8.64839 20010 ft 190 kts 312°
2026-05-04 17:45 49.21670 8.63493 20011 ft 190 kts 312°
2026-05-04 17:45 49.22655 8.62156 20008 ft 189 kts 312°
2026-05-04 17:46 49.23640 8.60817 20005 ft 189 kts 312°
2026-05-04 17:46 49.24622 8.59483 20003 ft 189 kts 312°
2026-05-04 17:46 49.25603 8.58149 20001 ft 189 kts 312°
2026-05-04 17:46 49.26583 8.56817 20000 ft 188 kts 312°
2026-05-04 17:47 49.27551 8.55500 19999 ft 188 kts 312°
2026-05-04 17:47 49.28539 8.54153 19998 ft 188 kts 312°
2026-05-04 17:47 49.29519 8.52820 19997 ft 188 kts 312°
2026-05-04 17:47 49.30497 8.51486 19997 ft 188 kts 312°
2026-05-04 17:48 49.31473 8.50155 19996 ft 188 kts 312°
2026-05-04 17:48 49.32450 8.48822 19995 ft 188 kts 312°
2026-05-04 17:48 49.33426 8.47488 19995 ft 188 kts 311°
2026-05-04 17:48 49.34389 8.46173 19994 ft 188 kts 311°
2026-05-04 17:49 49.35369 8.44834 19994 ft 188 kts 312°
2026-05-04 17:49 49.36344 8.43500 20004 ft 188 kts 311°
2026-05-04 17:49 49.37317 8.42169 20004 ft 188 kts 311°
2026-05-04 17:49 49.38290 8.40836 20004 ft 188 kts 312°
2026-05-04 17:50 49.39265 8.39501 20006 ft 188 kts 311°
2026-05-04 17:50 49.40239 8.38166 20006 ft 188 kts 311°
2026-05-04 17:50 49.41212 8.36831 20006 ft 188 kts 311°
2026-05-04 17:50 49.42187 8.35493 20006 ft 188 kts 311°
2026-05-04 17:51 49.43163 8.34153 20007 ft 188 kts 311°
2026-05-04 17:51 49.44142 8.32807 20008 ft 188 kts 311°
2026-05-04 17:51 49.45118 8.31466 20012 ft 188 kts 311°
2026-05-04 17:51 49.46095 8.30124 20015 ft 188 kts 311°
2026-05-04 17:52 49.47074 8.28776 20012 ft 189 kts 311°
2026-05-04 17:52 49.48052 8.27428 20012 ft 189 kts 311°
2026-05-04 17:52 49.49031 8.26080 20010 ft 189 kts 311°
2026-05-04 17:52 49.50010 8.24732 20012 ft 189 kts 311°
2026-05-04 17:53 49.50987 8.23385 20015 ft 188 kts 311°
2026-05-04 17:53 49.51960 8.22041 20014 ft 188 kts 311°
2026-05-04 17:53 49.52922 8.20713 20014 ft 188 kts 311°
2026-05-04 17:53 49.53895 8.19368 20012 ft 188 kts 311°
2026-05-04 17:54 49.54869 8.18022 20011 ft 188 kts 311°
2026-05-04 17:54 49.55840 8.16680 20010 ft 188 kts 311°
2026-05-04 17:54 49.56809 8.15338 20009 ft 187 kts 311°
2026-05-04 17:54 49.57776 8.13999 20010 ft 187 kts 311°
2026-05-04 17:55 49.58747 8.12654 20010 ft 188 kts 311°
2026-05-04 17:55 49.59719 8.11308 20007 ft 188 kts 311°
2026-05-04 17:55 49.60690 8.09960 20015 ft 188 kts 311°
2026-05-04 17:55 49.61661 8.08613 20015 ft 188 kts 311°
2026-05-04 17:56 49.62635 8.07261 20013 ft 188 kts 311°
2026-05-04 17:56 49.63606 8.05912 20011 ft 188 kts 310°
2026-05-04 17:56 49.64575 8.04565 20012 ft 188 kts 310°
2026-05-04 17:56 49.65546 8.03215 20012 ft 188 kts 311°
2026-05-04 17:57 49.66515 8.01865 20015 ft 188 kts 310°
2026-05-04 17:57 49.67488 8.00512 20014 ft 188 kts 310°
2026-05-04 17:57 49.68458 7.99159 20015 ft 188 kts 310°
2026-05-04 17:57 49.69429 7.97807 20016 ft 188 kts 310°
2026-05-04 17:58 49.70388 7.96469 20018 ft 188 kts 311°
2026-05-04 17:58 49.71375 7.95092 20020 ft 188 kts 311°
2026-05-04 17:58 49.72335 7.93752 20022 ft 188 kts 311°
2026-05-04 17:58 49.73307 7.92393 20021 ft 188 kts 311°
2026-05-04 17:59 49.74282 7.91032 20021 ft 189 kts 311°
2026-05-04 17:59 49.75257 7.89666 20022 ft 189 kts 311°
2026-05-04 17:59 49.77209 7.86935 20021 ft 189 kts 311°
2026-05-04 18:00 49.78181 7.85573 20020 ft 188 kts 310°
2026-05-04 18:00 49.79155 7.84208 20021 ft 189 kts 310°
2026-05-04 18:00 49.80128 7.82842 20020 ft 189 kts 311°
2026-05-04 18:00 49.81099 7.81481 20021 ft 188 kts 310°
2026-05-04 18:01 49.82056 7.80137 20024 ft 188 kts 310°
2026-05-04 18:01 49.83023 7.78778 20022 ft 188 kts 311°
2026-05-04 18:01 49.83991 7.77416 20021 ft 187 kts 310°
2026-05-04 18:02 49.85921 7.74702 20019 ft 187 kts 310°
2026-05-04 18:02 49.86885 7.73344 20019 ft 187 kts 310°
2026-05-04 18:02 49.87852 7.71983 20022 ft 188 kts 310°
2026-05-04 18:02 49.88813 7.70628 20024 ft 187 kts 310°
2026-05-04 18:03 49.89777 7.69269 20026 ft 187 kts 310°
2026-05-04 18:03 49.90725 7.67928 20023 ft 187 kts 310°
2026-05-04 18:03 49.91690 7.66566 20025 ft 188 kts 310°
2026-05-04 18:03 49.92658 7.65199 20024 ft 187 kts 310°
2026-05-04 18:04 49.93623 7.63835 20030 ft 187 kts 310°
2026-05-04 18:04 49.94583 7.62478 20031 ft 187 kts 310°
2026-05-04 18:04 49.96506 7.59756 20028 ft 187 kts 310°
2026-05-04 18:05 49.97466 7.58395 20025 ft 186 kts 310°
2026-05-04 18:05 49.98423 7.57039 20024 ft 186 kts 310°
2026-05-04 18:05 49.99372 7.55691 20025 ft 187 kts 310°
2026-05-04 18:05 50.00331 7.54332 20025 ft 186 kts 310°
2026-05-04 18:06 50.02243 7.51615 20024 ft 186 kts 310°
2026-05-04 18:06 50.03198 7.50257 20023 ft 186 kts 310°
2026-05-04 18:06 50.04152 7.48900 20024 ft 186 kts 310°
2026-05-04 18:07 50.05104 7.47544 20024 ft 186 kts 310°
2026-05-04 18:07 50.06057 7.46188 20024 ft 185 kts 310°
2026-05-04 18:07 50.07011 7.44828 20023 ft 185 kts 310°
2026-05-04 18:07 50.07963 7.43472 20024 ft 186 kts 310°
2026-05-04 18:08 50.08917 7.42111 20025 ft 185 kts 310°
2026-05-04 18:08 50.09869 7.40751 20024 ft 185 kts 310°
2026-05-04 18:08 50.10818 7.39395 20025 ft 186 kts 310°
2026-05-04 18:08 50.11755 7.38058 20027 ft 186 kts 310°
2026-05-04 18:09 50.13653 7.35342 20027 ft 186 kts 310°
2026-05-04 18:09 50.15566 7.32607 20028 ft 187 kts 311°
2026-05-04 18:10 50.16526 7.31231 20027 ft 186 kts 311°
2026-05-04 18:10 50.17480 7.29861 20027 ft 186 kts 311°
2026-05-04 18:10 50.18437 7.28490 20025 ft 185 kts 310°
2026-05-04 18:10 50.19385 7.27128 20031 ft 185 kts 310°
2026-05-04 18:11 50.20336 7.25762 20025 ft 185 kts 311°
2026-05-04 18:11 50.21275 7.24412 20025 ft 186 kts 311°
2026-05-04 18:11 50.22225 7.23047 20025 ft 185 kts 311°
2026-05-04 18:11 50.23172 7.21684 20025 ft 186 kts 311°
2026-05-04 18:12 50.24121 7.20318 20027 ft 185 kts 311°
2026-05-04 18:12 50.25072 7.18949 20027 ft 186 kts 311°
2026-05-04 18:12 50.26023 7.17578 20026 ft 185 kts 311°
2026-05-04 18:12 50.26971 7.16212 20026 ft 185 kts 311°
2026-05-04 18:13 50.27919 7.14844 20027 ft 185 kts 311°
2026-05-04 18:13 50.28865 7.13476 20028 ft 185 kts 311°
2026-05-04 18:13 50.30761 7.10738 20027 ft 186 kts 311°
2026-05-04 18:14 50.31714 7.09359 20028 ft 187 kts 311°
2026-05-04 18:14 50.32670 7.07977 20029 ft 187 kts 311°
2026-05-04 18:14 50.33302 7.07062 20030 ft 187 kts 311°
2026-05-04 18:15 50.35521 7.03848 20028 ft 186 kts 311°
2026-05-04 18:15 50.37423 7.01088 20027 ft 187 kts 310°
2026-05-04 18:15 50.38376 6.99705 20027 ft 187 kts 311°
2026-05-04 18:16 50.39019 6.98771 20025 ft 186 kts 310°
2026-05-04 18:16 50.39970 6.97389 20025 ft 186 kts 310°
2026-05-04 18:16 50.40919 6.96009 20026 ft 186 kts 310°
2026-05-04 18:17 50.42818 6.93245 20028 ft 188 kts 311°
2026-05-04 18:17 50.43777 6.91849 20029 ft 188 kts 311°
2026-05-04 18:17 50.45703 6.89041 20027 ft 189 kts 312°
2026-05-04 18:18 50.46673 6.87627 20021 ft 189 kts 311°
2026-05-04 18:18 50.47635 6.86221 20021 ft 189 kts 311°
2026-05-04 18:18 50.48598 6.84814 20023 ft 189 kts 311°
2026-05-04 18:18 50.49543 6.83433 20016 ft 188 kts 311°
2026-05-04 18:19 50.51581 6.80845 20026 ft 191 kts 323°
2026-05-04 18:19 50.52713 6.79740 20020 ft 191 kts 323°
2026-05-04 18:19 50.53834 6.78622 20019 ft 191 kts 322°
2026-05-04 18:20 50.54954 6.77503 20019 ft 191 kts 322°
2026-05-04 18:20 50.56089 6.76369 19910 ft 195 kts 323°
2026-05-04 18:20 50.57247 6.75213 19793 ft 198 kts 323°
2026-05-04 18:20 50.58418 6.74043 19678 ft 200 kts 323°
2026-05-04 18:21 50.59591 6.72870 19562 ft 201 kts 323°
2026-05-04 18:21 50.60775 6.71686 19445 ft 201 kts 323°
2026-05-04 18:21 50.61945 6.70514 19321 ft 202 kts 323°
2026-05-04 18:21 50.63128 6.69329 19194 ft 202 kts 323°
2026-05-04 18:22 50.64311 6.68144 19072 ft 202 kts 323°
2026-05-04 18:22 50.65492 6.66959 19002 ft 199 kts 323°
2026-05-04 18:22 50.66643 6.65806 18995 ft 194 kts 323°
2026-05-04 18:22 50.67780 6.64662 18992 ft 190 kts 323°
2026-05-04 18:23 50.68881 6.63553 18989 ft 190 kts 323°
2026-05-04 18:23 50.69996 6.62432 18989 ft 189 kts 323°
2026-05-04 18:23 50.71105 6.61318 18992 ft 188 kts 323°
2026-05-04 18:23 50.72209 6.60209 18981 ft 187 kts 323°
2026-05-04 18:24 50.73305 6.59098 18989 ft 187 kts 323°
2026-05-04 18:24 50.74403 6.57989 18991 ft 188 kts 323°
2026-05-04 18:24 50.75505 6.56880 18984 ft 188 kts 323°
2026-05-04 18:24 50.76611 6.55767 19011 ft 188 kts 323°
2026-05-04 18:25 50.77714 6.54653 19012 ft 189 kts 323°
2026-05-04 18:25 50.78823 6.53534 19015 ft 189 kts 323°
2026-05-04 18:25 50.79933 6.52412 19014 ft 190 kts 323°
2026-05-04 18:25 50.81045 6.51287 19012 ft 190 kts 323°
2026-05-04 18:26 50.82157 6.50162 19012 ft 190 kts 323°
2026-05-04 18:26 50.83272 6.49033 19006 ft 190 kts 323°
2026-05-04 18:26 50.84385 6.47907 19009 ft 190 kts 323°
2026-05-04 18:26 50.85498 6.46777 19010 ft 190 kts 323°
2026-05-04 18:27 50.86611 6.45650 19005 ft 190 kts 323°
2026-05-04 18:27 50.87708 6.44536 19010 ft 190 kts 323°
2026-05-04 18:27 50.88832 6.43395 19011 ft 190 kts 323°
2026-05-04 18:27 50.89944 6.42265 19004 ft 190 kts 323°
2026-05-04 18:28 50.91040 6.41151 19002 ft 190 kts 323°
2026-05-04 18:28 50.92164 6.40008 18998 ft 189 kts 323°
2026-05-04 18:28 50.93260 6.38893 18998 ft 190 kts 323°
2026-05-04 18:28 50.94384 6.37748 18998 ft 190 kts 323°
2026-05-04 18:29 50.95477 6.36635 19007 ft 190 kts 323°
2026-05-04 18:29 50.96586 6.35504 19002 ft 189 kts 323°
2026-05-04 18:29 50.97698 6.34370 19000 ft 189 kts 323°
2026-05-04 18:29 50.98805 6.33240 18998 ft 190 kts 323°
2026-05-04 18:30 51.01021 6.30977 18998 ft 190 kts 323°
2026-05-04 18:30 51.02133 6.29841 19005 ft 189 kts 323°
2026-05-04 18:30 51.03241 6.28706 18999 ft 190 kts 323°
2026-05-04 18:31 51.04353 6.27569 18999 ft 190 kts 323°
2026-05-04 18:31 51.05463 6.26433 19000 ft 190 kts 323°
2026-05-04 18:31 51.06574 6.25294 18999 ft 190 kts 323°
2026-05-04 18:31 51.07683 6.24157 18998 ft 190 kts 323°
2026-05-04 18:32 51.08793 6.23018 19000 ft 190 kts 323°
2026-05-04 18:32 51.09900 6.21881 18998 ft 190 kts 323°
2026-05-04 18:32 51.11010 6.20742 18999 ft 190 kts 323°
2026-05-04 18:32 51.12117 6.19604 18997 ft 190 kts 323°
2026-05-04 18:33 51.13226 6.18464 18997 ft 190 kts 323°
2026-05-04 18:33 51.14337 6.17320 19006 ft 190 kts 323°
2026-05-04 18:33 51.15450 6.16174 18997 ft 190 kts 324°
2026-05-04 18:33 51.16563 6.15028 18996 ft 190 kts 324°
2026-05-04 18:34 51.17676 6.13881 19002 ft 190 kts 324°
2026-05-04 18:34 51.18787 6.12738 18998 ft 191 kts 325°
2026-05-04 18:34 51.19902 6.11586 19001 ft 191 kts 325°
2026-05-04 18:34 51.21004 6.10445 19000 ft 191 kts 325°
2026-05-04 18:35 51.22118 6.09296 18996 ft 191 kts 325°
2026-05-04 18:35 51.23237 6.08139 18996 ft 191 kts 325°
2026-05-04 18:35 51.24349 6.06989 18998 ft 190 kts 325°
2026-05-04 18:35 51.25460 6.05840 18998 ft 190 kts 325°
2026-05-04 18:36 51.26574 6.04686 18999 ft 190 kts 325°
2026-05-04 18:36 51.27685 6.03535 18999 ft 190 kts 325°
2026-05-04 18:36 51.28783 6.02397 18999 ft 190 kts 325°
2026-05-04 18:36 51.29893 6.01246 18998 ft 190 kts 325°
2026-05-04 18:37 51.31004 6.00092 18996 ft 190 kts 325°
2026-05-04 18:37 51.32117 5.98937 18994 ft 190 kts 325°
2026-05-04 18:37 51.33227 5.97783 18996 ft 190 kts 325°
2026-05-04 18:37 51.34338 5.96629 18996 ft 190 kts 325°
2026-05-04 18:38 51.35448 5.95473 18998 ft 190 kts 325°
2026-05-04 18:38 51.36555 5.94321 18996 ft 190 kts 325°
2026-05-04 18:38 51.37668 5.93162 18998 ft 190 kts 325°
2026-05-04 18:38 51.38777 5.92006 18996 ft 190 kts 325°
2026-05-04 18:39 51.39887 5.90849 18994 ft 190 kts 325°
2026-05-04 18:39 51.40996 5.89692 18994 ft 190 kts 325°
2026-05-04 18:39 51.42091 5.88549 18994 ft 190 kts 325°
2026-05-04 18:39 51.43199 5.87392 18995 ft 190 kts 326°
2026-05-04 18:40 51.44307 5.86237 18997 ft 190 kts 326°
2026-05-04 18:40 51.45412 5.85076 18997 ft 190 kts 326°
2026-05-04 18:40 51.46521 5.83915 18997 ft 190 kts 326°
2026-05-04 18:40 51.47628 5.82757 18997 ft 190 kts 326°
2026-05-04 18:41 51.48735 5.81598 18995 ft 190 kts 326°
2026-05-04 18:41 51.49844 5.80436 18998 ft 190 kts 326°
2026-05-04 18:41 51.50952 5.79274 18976 ft 191 kts 326°
2026-05-04 18:41 51.52075 5.78097 18859 ft 194 kts 326°
2026-05-04 18:42 51.53205 5.76908 18756 ft 194 kts 327°
2026-05-04 18:42 51.54330 5.75731 18643 ft 192 kts 327°
2026-05-04 18:42 51.55456 5.74546 18452 ft 195 kts 327°
2026-05-04 18:42 51.56602 5.73338 18216 ft 199 kts 328°
2026-05-04 18:43 51.57754 5.72124 17928 ft 201 kts 328°
2026-05-04 18:43 51.58927 5.70891 17641 ft 201 kts 328°
2026-05-04 18:43 51.60099 5.69657 17355 ft 202 kts 328°
2026-05-04 18:43 51.61300 5.68399 17076 ft 209 kts 328°
2026-05-04 18:44 51.62509 5.67113 16800 ft 208 kts 327°
2026-05-04 18:44 51.63313 5.66262 16614 ft 208 kts 328°
2026-05-04 18:44 51.64926 5.64560 16245 ft 207 kts 328°
2026-05-04 18:44 51.66130 5.63287 15963 ft 206 kts 328°
2026-05-04 18:45 51.67315 5.62032 15673 ft 203 kts 328°
2026-05-04 18:45 51.68494 5.60784 15400 ft 200 kts 327°
2026-05-04 18:45 51.69637 5.59574 15131 ft 198 kts 327°
2026-05-04 18:45 51.70788 5.58353 14859 ft 197 kts 327°
2026-05-04 18:46 51.71934 5.57138 14590 ft 197 kts 327°
2026-05-04 18:46 51.73076 5.55925 14324 ft 196 kts 327°
2026-05-04 18:46 51.74218 5.54712 14060 ft 196 kts 327°
2026-05-04 18:46 51.75355 5.53504 13800 ft 195 kts 327°
2026-05-04 18:47 51.76492 5.52295 13510 ft 195 kts 327°
2026-05-04 18:47 51.77624 5.51091 13218 ft 195 kts 327°
2026-05-04 18:47 51.78753 5.49889 12931 ft 194 kts 327°
2026-05-04 18:47 51.79878 5.48691 12646 ft 193 kts 327°
2026-05-04 18:48 51.80987 5.47508 12358 ft 193 kts 327°
2026-05-04 18:48 51.82104 5.46317 12082 ft 192 kts 327°
2026-05-04 18:48 51.83256 5.45236 11802 ft 191 kts 336°
2026-05-04 18:48 51.84305 5.43980 11521 ft 190 kts 304°
2026-05-04 18:49 51.84777 5.41992 11252 ft 189 kts 286°
2026-05-04 18:49 51.85284 5.40034 10982 ft 189 kts 298°
2026-05-04 18:49 51.85952 5.38209 10715 ft 188 kts 302°
2026-05-04 18:49 51.86635 5.36398 10449 ft 188 kts 301°
2026-05-04 18:50 51.87305 5.34585 10195 ft 187 kts 301°
2026-05-04 18:50 51.87969 5.32774 9923 ft 187 kts 301°
2026-05-04 18:50 51.88632 5.30964 9638 ft 187 kts 301°
2026-05-04 18:50 51.89286 5.29179 9350 ft 186 kts 301°
2026-05-04 18:51 51.89953 5.27357 9060 ft 185 kts 301°
2026-05-04 18:51 51.90601 5.25588 8781 ft 185 kts 301°
2026-05-04 18:51 51.91253 5.23805 8498 ft 184 kts 301°
2026-05-04 18:51 51.91903 5.22027 8216 ft 183 kts 301°
2026-05-04 18:52 51.92549 5.20256 7936 ft 182 kts 301°
2026-05-04 18:52 51.93194 5.18492 7660 ft 181 kts 301°
2026-05-04 18:52 51.93833 5.16739 7386 ft 180 kts 301°
2026-05-04 18:52 51.94471 5.14989 7113 ft 179 kts 301°
2026-05-04 18:53 51.95103 5.13253 6843 ft 179 kts 301°
2026-05-04 18:53 51.95735 5.11518 6576 ft 178 kts 301°
2026-05-04 18:53 51.96362 5.09792 6304 ft 177 kts 301°
2026-05-04 18:53 51.96988 5.08072 6027 ft 177 kts 301°
2026-05-04 18:54 51.97610 5.06358 5742 ft 176 kts 301°
2026-05-04 18:54 51.98228 5.04655 5466 ft 175 kts 301°
2026-05-04 18:54 51.98844 5.02957 5193 ft 174 kts 301°
2026-05-04 18:54 51.99457 5.01269 4919 ft 174 kts 301°
2026-05-04 18:55 52.00068 4.99580 4641 ft 173 kts 301°
2026-05-04 18:55 52.01283 4.96222 4076 ft 172 kts 301°
2026-05-04 18:55 52.01881 4.94568 3802 ft 172 kts 301°
2026-05-04 18:56 52.02486 4.92896 3527 ft 171 kts 302°
2026-05-04 18:56 52.03087 4.91228 3288 ft 169 kts 302°
2026-05-04 18:56 52.03675 4.89597 3162 ft 162 kts 304°
2026-05-04 18:56 52.04230 4.88056 3022 ft 159 kts 304°
2026-05-04 18:57 52.04784 4.86519 2885 ft 156 kts 303°
2026-05-04 18:57 52.05331 4.85002 2753 ft 155 kts 303°
2026-05-04 18:57 52.05877 4.83488 2621 ft 155 kts 303°
2026-05-04 18:57 52.06420 4.81976 2494 ft 155 kts 303°
2026-05-04 18:58 52.06823 4.80344 2363 ft 157 kts 288°
2026-05-04 18:58 52.07092 4.78635 2234 ft 155 kts 290°
2026-05-04 18:58 52.07428 4.76990 2104 ft 151 kts 295°
2026-05-04 18:58 52.07828 4.75449 2009 ft 144 kts 300°
2026-05-04 18:59 52.08285 4.74069 2000 ft 134 kts 308°
2026-05-04 18:59 52.08809 4.72812 2000 ft 136 kts 313°
2026-05-04 18:59 52.09195 4.71993 2003 ft 139 kts 311°
2026-05-04 18:59 52.09734 4.70672 2016 ft 141 kts 310°
2026-05-04 19:00 52.10312 4.69378 2018 ft 141 kts 312°
2026-05-04 19:00 52.10974 4.68215 2010 ft 139 kts 330°
2026-05-04 19:00 52.12167 4.67960 2016 ft 132 kts
2026-05-04 19:00 52.12792 4.67998 2016 ft 132 kts
2026-05-04 19:01 52.13710 4.67991 2010 ft 133 kts
2026-05-04 19:01 52.14635 4.67943 2015 ft 133 kts
2026-05-04 19:01 52.15862 4.67854 2014 ft 132 kts
2026-05-04 19:01 52.16484 4.67803 2012 ft 132 kts
2026-05-04 19:02 52.17402 4.67731 2014 ft 132 kts
2026-05-04 19:02 52.18316 4.67657 2013 ft 134 kts 360°
2026-05-04 19:02 52.19245 4.67578 2019 ft 133 kts
2026-05-04 19:02 52.20168 4.67502 2022 ft 132 kts 359°
2026-05-04 19:03 52.21079 4.67425 2022 ft 130 kts 359°
2026-05-04 19:03 52.21964 4.67373 2009 ft 124 kts
2026-05-04 19:03 52.22749 4.67925 1907 ft 125 kts 39°
2026-05-04 19:03 52.23403 4.68877 1748 ft 124 kts 40°
2026-05-04 19:04 52.24023 4.69756 1591 ft 116 kts 39°
2026-05-04 19:04 52.24609 4.70591 1428 ft 107 kts 39°
2026-05-04 19:04 52.25160 4.71377 1286 ft 105 kts 39°
2026-05-04 19:04 52.25719 4.72171 1134 ft 107 kts 40°
2026-05-04 19:05 52.26293 4.72992 1000 ft 111 kts 40°
2026-05-04 19:05 52.26883 4.73832 838 ft 111 kts 40°
2026-05-04 19:05 52.27442 4.74640 699 ft 106 kts 38°
2026-05-04 19:05 52.27988 4.75435 554 ft 104 kts 36°
2026-05-04 19:06 52.28539 4.76209 398 ft 104 kts 37°
2026-05-04 19:06 52.29090 4.76994 250 ft 107 kts 37°
2026-05-04 19:06 52.29651 4.77792 119 ft 105 kts 38°
2026-05-04 19:06 52.30186 4.78558 2 ft 99 kts 38°
2026-05-04 19:07 52.30598 4.79145 -13 ft 60 kts 38°
2026-05-04 19:07 52.30815 4.79457 -12 ft 22 kts 41°
2026-05-04 19:07 52.30892 4.79593 -14 ft 16 kts 66°
2026-05-04 19:07 52.30848 4.79722 -14 ft 10 kts 132°
2026-05-04 19:08 52.30849 4.79857 -14 ft 15 kts 48°
2026-05-04 19:08 52.30937 4.79981 -13 ft 19 kts 41°
2026-05-04 19:08 52.31043 4.80135 -12 ft 18 kts 41°
2026-05-04 19:08 52.31062 4.80234 -10 ft 12 kts 141°
2026-05-04 19:09 52.31066 4.80339 -11 ft 13 kts 40°
2026-05-04 19:09 52.31125 4.80422 -10 ft 8 kts 41°
2026-05-04 19:09 52.31153 4.80477 -10 ft 4 kts 123°
2026-05-04 19:09 52.31137 4.80495 -10 ft 2 kts 136°
2026-05-04 19:10 52.31134 4.80501 -10 ft 0 kts 137°